Location: Unspecified
(0.0000°N, 0.0000°E)
Time: 03:01:32
(UTC+00:00)

Vanguard 1 - Pass Details

Date: 10 December 2023
Orbit: 653 x 3826 km, 34.3° (Epoch: 22 February)

Event Time Altitude Azimuth Distance (km) Brightness Sun altitude
Rises 20:58:50 0° 319° (NW) 7,057 14.5 -41.9°
Reaches altitude 10° 21:04:21 10° 330° (NNW) 6,397 14.1 -43.1°
Enters shadow 21:13:56 26° 354° (N) 5,557 13.6 -45.1°
Maximum altitude 21:23:09 32° 27° (NNE) 5,250 - -47.0°
Drops below altitude 10° 21:41:29 10° 83° (E) 6,351 - -50.7°
Sets 21:46:45 0° 93° (E) 7,017 - -51.7°
